軌道要素
Epoch 2008 June 23.0 TT = JDT 2454640.5
T 2008 June 12.03934 TT MPC
q 1.3054069 (2000.0) P Q
n 0.17268485 Peri. 233.16933 -0.95745615 +0.17437175
a 3.1937425 Node 315.52189 -0.00512856 -0.80695580
e 0.5912611 Incl. 19.15875 -0.28853322 -0.56428435
P 5.71
From 202 observations 2008 Jan. 13-2014 July 3, mean residual 0".5.
|